Weather in Chalcis

Greece     38°27′42″N   23°35′32″E
temp.,
°C
wind,
m/s
gust,
m/s
humid.,
%
clouds,
%
prec.,
mm/h
press.,
hPa
HPBL,
m
8 march, mon
mon823:00+8e118117 0.0 1022170
02:00+8se128111 0.0 1020188
05:00+7se228213 0.0 1019208
08:00+8se227836 0.0 1019214
11:00+11se227185 0.0 1018485
14:00+13ese236592 0.0 1016784
17:00+13se4471100 0.0 1015604
20:00+11se4582100 0.0 1016242
9 march, tue
tue923:00+10se2382100 0.0 1016157
02:00+10ese1183100 0.0 1016121
05:00+9ese118350 0.0 101598
08:00+10sw008131 0.0 1016140
11:00+12se017242 0.0 1016503
14:00+13nne116838 0.1 1016521
17:00+14ne226557 0.0 1015772
20:00+11e127772 0.0 1016108
10 march, wed
wed1023:00+10e118183 0.0 101682
02:00+10e018192 0.0 101593
05:00+10s1182100 0.0 101498
08:00+11s117986 0.0 1014115
11:00+14sse126530 0.0 1014577
14:00+16wsw245315 0.0 1013761
17:00+17ssw36580 0.0 1012427
20:00+13n458234 0.1 1014252
11 march, thu
thu1123:00+12nnw238490 0.1 1016322
02:00+10nne458092 0.3 1017450
05:00+9n4682100 0.6 1018620
08:00+9nw6884100 1.4 1021569
11:00+10n467997 0.6 1024725
14:00+10n337398 0.7 1024678
17:00+10n336643 0.0 1023751
20:00+8nne127123 0.0 1024237
12 march, fri
fri1223:00+8se12750 0.0 1025140
02:00+7sse22780 0.0 1024154
05:00+7sse12780 0.0 1023130
08:00+8sse12740 0.0 1022139
11:00+12se11640 0.0 1022480
14:00+15ese12550 0.0 1020602
17:00+16ese34590 0.0 1018588
20:00+12se23730 0.0 1018119